• En España
  • Lista de países
  • Para 7 días
  • Temperatura del agua
  • Mapa Satelital
  • El tiempo en el mapa
  • Informadores
  • user-avatar
    Iniciar sesión

    Tiempo cada hora Korçe

    Hoy, 22 Agosto, Martes

    Tiempo Temperatura Precipitaciones Viento Presión Humedad
    00:00 +15°C° 0 mm 2 mps 666 mmHg 77%
    01:00 +14°C° 0 mm 2 mps 666 mmHg 78%
    02:00 +14°C° 0 mm 2 mps 666 mmHg 78%
    03:00 +13°C° 0 mm 2 mps 666 mmHg 78%
    04:00 +13°C° 0 mm 2 mps 666 mmHg 78%
    05:00 +14°C° 0 mm 2 mps 666 mmHg 73%
    06:00 +15°C° 0 mm 2 mps 667 mmHg 67%
    07:00 +16°C° 0 mm 3 mps 667 mmHg 59%
    08:00 +18°C° 0 mm 3 mps 667 mmHg 53%
    09:00 +19°C° 0 mm 2 mps 668 mmHg 47%
    10:00 +21°C° 0 mm 2 mps 668 mmHg 40%
    11:00 +23°C° 0 mm 2 mps 668 mmHg 37%
    12:00 +24°C° 0 mm 2 mps 669 mmHg 34%
    13:00 +25°C° 0 mm 2 mps 669 mmHg 31%
    14:00 +25°C° 0 mm 3 mps 669 mmHg 31%
    15:00 +25°C° 0 mm 3 mps 668 mmHg 31%
    16:00 +25°C° 0 mm 3 mps 668 mmHg 31%
    17:00 +21°C° 0 mm 3 mps 668 mmHg 36%
    18:00 +19°C° 0 mm 2 mps 668 mmHg 41%
    19:00 +17°C° 0 mm 2 mps 667 mmHg 46%
    20:00 +16°C° 0 mm 2 mps 667 mmHg 46%
    21:00 +15°C° 0 mm 2 mps 667 mmHg 47%
    22:00 +14°C° 0 mm 2 mps 667 mmHg 47%
    23:00 +14°C° 0 mm 2 mps 667 mmHg 46%

    Mañana, 23 Agosto, Miércoles

    Tiempo Temperatura Precipitaciones Viento Presión Humedad
    00:00 +13°C° 0 mm 2 mps 667 mmHg 44%
    01:00 +13°C° 0 mm 2 mps 667 mmHg 43%
    02:00 +13°C° 0 mm 1 mps 667 mmHg 43%
    03:00 +13°C° 0 mm 1 mps 667 mmHg 43%
    04:00 +12°C° 0 mm 1 mps 667 mmHg 43%
    05:00 +14°C° 0 mm 1 mps 668 mmHg 41%
    06:00 +16°C° 0 mm 1 mps 668 mmHg 40%
    07:00 +18°C° 0 mm 1 mps 669 mmHg 38%
    08:00 +20°C° 0 mm 1 mps 670 mmHg 36%
    09:00 +23°C° 0 mm 1 mps 670 mmHg 35%
    10:00 +25°C° 0 mm 1 mps 671 mmHg 33%
    11:00 +25°C° 0 mm 2 mps 671 mmHg 32%
    12:00 +26°C° 0 mm 2 mps 671 mmHg 30%
    13:00 +27°C° 0 mm 3 mps 671 mmHg 29%
    14:00 +26°C° 0 mm 3 mps 671 mmHg 30%
    15:00 +26°C° 0 mm 3 mps 670 mmHg 31%
    16:00 +25°C° 0 mm 3 mps 670 mmHg 32%
    17:00 +22°C° 0 mm 3 mps 670 mmHg 37%
    18:00 +20°C° 0 mm 2 mps 669 mmHg 42%
    19:00 +17°C° 0 mm 2 mps 669 mmHg 47%
    20:00 +18°C° 0 mm 1 mps 669 mmHg 48%
    21:00 +16°C° 0 mm 1 mps 669 mmHg 49%
    22:00 +15°C° 0 mm 1 mps 669 mmHg 50%
    23:00 +15°C° 0 mm 1 mps 669 mmHg 50%

    Pasado mañana, 24 Agosto, Jueves

    Tiempo Temperatura Precipitaciones Viento Presión Humedad
    00:00 +14°C° 0 mm 1 mps 669 mmHg 49%
    01:00 +14°C° 0 mm 1 mps 669 mmHg 49%
    02:00 +14°C° 0 mm 1 mps 669 mmHg 49%
    03:00 +14°C° 0 mm 1 mps 669 mmHg 49%
    04:00 +14°C° 0 mm 1 mps 669 mmHg 48%
    05:00 +15°C° 0 mm 1 mps 669 mmHg 46%
    06:00 +18°C° 0 mm 1 mps 670 mmHg 43%
    07:00 +19°C° 0 mm 1 mps 671 mmHg 40%
    08:00 +22°C° 0 mm 1 mps 671 mmHg 36%
    09:00 +24°C° 0 mm 1 mps 672 mmHg 32%
    10:00 +26°C° 0 mm 1 mps 673 mmHg 28%
    11:00 +27°C° 0 mm 1 mps 672 mmHg 26%
    12:00 +28°C° 0 mm 2 mps 672 mmHg 25%
    13:00 +28°C° 0 mm 2 mps 672 mmHg 23%
    14:00 +28°C° 0 mm 2 mps 672 mmHg 24%
    15:00 +28°C° 0 mm 3 mps 672 mmHg 25%
    16:00 +27°C° 0 mm 3 mps 671 mmHg 25%
    17:00 +25°C° 0 mm 2 mps 671 mmHg 30%
    18:00 +21°C° 0 mm 2 mps 671 mmHg 35%
    19:00 +20°C° 0 mm 1 mps 670 mmHg 41%
    20:00 +19°C° 0 mm 1 mps 670 mmHg 41%
    21:00 +18°C° 0 mm 1 mps 670 mmHg 42%
    22:00 +18°C° 0 mm 1 mps 670 mmHg 42%
    23:00 +18°C° 0 mm 1 mps 670 mmHg 42%

    25 Agosto, Viernes

    Tiempo Temperatura Precipitaciones Viento Presión Humedad
    00:00 +16°C° 0 mm 2 mps 670 mmHg 41%
    01:00 +16°C° 0 mm 2 mps 670 mmHg 41%
    02:00 +16°C° 0 mm 2 mps 670 mmHg 41%
    03:00 +15°C° 0 mm 2 mps 670 mmHg 40%
    04:00 +15°C° 0 mm 2 mps 670 mmHg 40%
    05:00 +17°C° 0 mm 2 mps 671 mmHg 38%
    06:00 +18°C° 0 mm 2 mps 671 mmHg 37%
    07:00 +20°C° 0 mm 2 mps 672 mmHg 35%
    08:00 +23°C° 0 mm 2 mps 672 mmHg 31%
    09:00 +25°C° 0 mm 2 mps 673 mmHg 28%
    10:00 +27°C° 0 mm 2 mps 673 mmHg 24%
    11:00 +28°C° 0 mm 2 mps 673 mmHg 23%
    12:00 +29°C° 0 mm 2 mps 673 mmHg 21%
    13:00 +30°C° 0 mm 2 mps 673 mmHg 20%
    14:00 +29°C° 0 mm 2 mps 673 mmHg 20%
    15:00 +29°C° 0 mm 2 mps 672 mmHg 21%
    16:00 +29°C° 0 mm 2 mps 672 mmHg 21%
    17:00 +26°C° 0 mm 2 mps 671 mmHg 27%
    18:00 +23°C° 0 mm 2 mps 671 mmHg 32%
    19:00 +21°C° 0 mm 1 mps 670 mmHg 37%
    20:00 +20°C° 0 mm 1 mps 670 mmHg 39%
    21:00 +19°C° 0 mm 1 mps 670 mmHg 40%
    22:00 +18°C° 0 mm 1 mps 670 mmHg 41%
    23:00 +18°C° 0 mm 1 mps 670 mmHg 41%

    26 Agosto, Sábado

    Tiempo Temperatura Precipitaciones Viento Presión Humedad
    00:00 +17°C° 0 mm 2 mps 670 mmHg 41%
    01:00 +16°C° 0 mm 2 mps 670 mmHg 42%
    02:00 +16°C° 0 mm 2 mps 669 mmHg 42%
    03:00 +16°C° 0 mm 2 mps 669 mmHg 43%
    04:00 +15°C° 0 mm 1 mps 669 mmHg 44%
    05:00 +18°C° 0 mm 1 mps 670 mmHg 42%
    06:00 +19°C° 0 mm 1 mps 670 mmHg 40%
    07:00 +20°C° 0 mm 2 mps 671 mmHg 38%
    08:00 +23°C° 0 mm 1 mps 671 mmHg 33%
    09:00 +26°C° 0 mm 1 mps 672 mmHg 28%
    10:00 +28°C° 0 mm 1 mps 672 mmHg 23%
    11:00 +29°C° 0 mm 2 mps 672 mmHg 22%
    12:00 +30°C° 0 mm 2 mps 672 mmHg 20%
    13:00 +30°C° 0 mm 2 mps 672 mmHg 19%
    14:00 +30°C° 0 mm 2 mps 672 mmHg 20%
    15:00 +30°C° 0 mm 2 mps 671 mmHg 21%
    16:00 +29°C° 0 mm 2 mps 671 mmHg 21%
    17:00 +26°C° 0 mm 2 mps 671 mmHg 27%
    18:00 +24°C° 0 mm 2 mps 670 mmHg 33%
    19:00 +21°C° 0 mm 1 mps 669 mmHg 38%
    20:00 +20°C° 0 mm 1 mps 669 mmHg 39%
    21:00 +20°C° 0 mm 1 mps 669 mmHg 40%
    22:00 +19°C° 0 mm 1 mps 669 mmHg 41%
    23:00 +19°C° 0 mm 1 mps 669 mmHg 41%

    27 Agosto, Domingo

    Tiempo Temperatura Precipitaciones Viento Presión Humedad
    00:00 +18°C° 0 mm 1 mps 669 mmHg 41%
    01:00 +18°C° 0 mm 1 mps 669 mmHg 42%
    02:00 +18°C° 0 mm 1 mps 669 mmHg 42%
    03:00 +16°C° 0 mm 1 mps 668 mmHg 43%
    04:00 +16°C° 0 mm 1 mps 668 mmHg 43%
    05:00 +19°C° 0 mm 1 mps 669 mmHg 41%
    06:00 +20°C° 0 mm 1 mps 669 mmHg 39%
    07:00 +22°C° 0 mm 1 mps 670 mmHg 36%
    08:00 +24°C° 0 mm 1 mps 670 mmHg 31%
    09:00 +27°C° 0 mm 1 mps 671 mmHg 26%
    10:00 +29°C° 0 mm 1 mps 671 mmHg 21%
    11:00 +30°C° 0 mm 2 mps 671 mmHg 20%
    12:00 +31°C° 0 mm 2 mps 671 mmHg 19%
    13:00 +31°C° 0 mm 2 mps 671 mmHg 18%
    14:00 +31°C° 0 mm 2 mps 671 mmHg 19%
    15:00 +31°C° 0 mm 2 mps 670 mmHg 20%
    16:00 +30°C° 0 mm 2 mps 670 mmHg 20%
    17:00 +27°C° 0 mm 2 mps 670 mmHg 26%
    18:00 +24°C° 0 mm 2 mps 669 mmHg 31%
    19:00 +22°C° 0 mm 1 mps 668 mmHg 36%
    20:00 +21°C° 0 mm 1 mps 668 mmHg 37%
    21:00 +20°C° 0 mm 1 mps 668 mmHg 38%
    22:00 +20°C° 0 mm 1 mps 668 mmHg 39%
    23:00 +19°C° 0 mm 1 mps 668 mmHg 39%
    Mostrar más